Time,TemperatureF,DewpointF,PressureIn,WindDirection,WindDirectionDegrees,WindSpeedMPH,WindSpeedGustMPH,Humidity,HourlyPrecipIn,Conditions,Clouds,dailyrainin,SoftwareType,DateUTC
2013-09-20 00:00:00,54.2,51.6,30.06,WNW,289,4.0,4.0,91,0.00,,,0.18,Wunderground v.1.15,2013-09-20 05:00:00,
2013-09-20 00:10:00,54.2,51.3,30.06,WNW,294,4.0,5.0,90,0.00,,,0.18,Wunderground v.1.15,2013-09-20 05:10:00,
2013-09-20 00:15:00,54.3,51.4,30.06,WNW,293,5.0,5.0,90,0.00,,,0.18,Wunderground v.1.15,2013-09-20 05:15:00,
2013-09-20 00:20:00,54.2,51.0,30.06,WNW,294,5.0,6.0,89,0.00,,,0.18,Wunderground v.1.15,2013-09-20 05:20:00,
2013-09-20 00:25:00,54.1,50.9,30.06,WNW,291,5.0,6.0,89,0.00,,,0.18,Wunderground v.1.15,2013-09-20 05:25:00,
2013-09-20 00:35:00,53.7,50.5,30.06,WNW,291,4.0,5.0,89,0.00,,,0.18,Wunderground v.1.15,2013-09-20 05:35:00,
2013-09-20 00:40:00,53.5,50.6,30.06,WNW,286,4.0,4.0,90,0.00,,,0.18,Wunderground v.1.15,2013-09-20 05:40:00,
2013-09-20 00:49:00,53.2,50.3,30.06,WNW,302,5.0,7.0,90,0.00,,,0.18,Wunderground v.1.15,2013-09-20 05:49:00,
2013-09-20 00:55:00,53.0,50.1,30.06,WNW,292,5.0,7.0,90,0.00,,,0.18,Wunderground v.1.15,2013-09-20 05:55:00,
2013-09-20 01:00:00,52.9,50.0,30.07,WNW,298,4.0,5.0,90,0.00,,,0.00,Wunderground v.1.15,2013-09-20 06:00:00,
2013-09-20 01:05:00,52.8,49.9,30.06,WNW,294,4.0,5.0,90,0.00,,,0.00,Wunderground v.1.15,2013-09-20 06:05:00,
2013-09-20 01:10:00,52.6,49.8,30.06,WNW,299,5.0,7.0,90,0.00,,,0.00,Wunderground v.1.15,2013-09-20 06:10:00,
2013-09-20 01:20:00,52.7,49.5,30.07,WNW,292,6.0,6.0,89,0.00,,,0.00,Wunderground v.1.15,2013-09-20 06:20:00,
2013-09-20 01:25:00,52.8,49.6,30.07,WNW,298,5.0,6.0,89,0.00,,,0.00,Wunderground v.1.15,2013-09-20 06:25:00,
2013-09-20 01:30:00,52.7,49.5,30.07,WNW,294,5.0,5.0,89,0.00,,,0.00,Wunderground v.1.15,2013-09-20 06:30:00,
2013-09-20 01:35:00,52.6,49.4,30.07,WNW,300,5.0,5.0,89,0.00,,,0.00,Wunderground v.1.15,2013-09-20 06:35:00,
2013-09-20 01:45:00,52.3,49.2,30.07,WNW,298,4.0,5.0,89,0.00,,,0.00,Wunderground v.1.15,2013-09-20 06:45:00,
2013-09-20 01:50:00,52.2,49.1,30.07,WNW,298,4.0,5.0,89,0.00,,,0.00,Wunderground v.1.15,2013-09-20 06:50:00,
2013-09-20 01:55:00,52.0,48.9,30.07,WNW,296,4.0,5.0,89,0.00,,,0.00,Wunderground v.1.15,2013-09-20 06:55:00,
2013-09-20 02:04:00,51.8,48.7,30.08,WNW,294,5.0,5.0,89,0.00,,,0.00,Wunderground v.1.15,2013-09-20 07:04:00,
2013-09-20 02:10:00,51.7,48.6,30.07,WNW,294,4.0,4.0,89,0.00,,,0.00,Wunderground v.1.15,2013-09-20 07:10:00,
2013-09-20 02:15:00,51.5,48.7,30.08,WNW,294,4.0,4.0,90,0.00,,,0.00,Wunderground v.1.15,2013-09-20 07:15:00,
2013-09-20 02:20:00,51.5,48.7,30.08,WNW,293,4.0,4.0,90,0.00,,,0.00,Wunderground v.1.15,2013-09-20 07:20:00,
2013-09-20 02:30:00,51.3,48.2,30.08,WNW,294,3.0,3.0,89,0.00,,,0.00,Wunderground v.1.15,2013-09-20 07:30:00,
2013-09-20 02:35:00,51.3,48.2,30.08,WNW,294,1.0,3.0,89,0.00,,,0.00,Wunderground v.1.15,2013-09-20 07:35:00,
2013-09-20 02:40:00,51.3,48.2,30.08,WNW,294,1.0,2.0,89,0.00,,,0.00,Wunderground v.1.15,2013-09-20 07:40:00,
2013-09-20 02:45:00,51.3,48.2,30.08,WNW,294,3.0,3.0,89,0.00,,,0.00,Wunderground v.1.15,2013-09-20 07:45:00,
2013-09-20 02:55:00,51.0,47.9,30.08,WNW,296,4.0,6.0,89,0.00,,,0.00,Wunderground v.1.15,2013-09-20 07:55:00,
2013-09-20 03:00:00,50.8,47.7,30.08,WNW,299,5.0,5.0,89,0.00,,,0.00,Wunderground v.1.15,2013-09-20 08:00:00,
2013-09-20 03:05:00,50.6,47.5,30.08,WNW,298,5.0,5.0,89,0.00,,,0.00,Wunderground v.1.15,2013-09-20 08:05:00,
2013-09-20 03:10:00,50.3,47.2,30.08,WNW,299,4.0,6.0,89,0.00,,,0.00,Wunderground v.1.15,2013-09-20 08:10:00,
2013-09-20 03:15:00,50.1,47.3,30.08,WNW,299,4.0,6.0,90,0.00,,,0.00,Wunderground v.1.15,2013-09-20 08:15:00,
2013-09-20 03:25:00,50.0,47.2,30.08,WNW,301,5.0,5.0,90,0.00,,,0.00,Wunderground v.1.15,2013-09-20 08:25:00,
2013-09-20 03:30:00,49.8,47.0,30.08,WNW,301,4.0,4.0,90,0.00,,,0.00,Wunderground v.1.15,2013-09-20 08:30:00,
2013-09-20 03:35:00,49.6,46.8,30.08,WNW,301,4.0,4.0,90,0.00,,,0.00,Wunderground v.1.15,2013-09-20 08:35:00,
2013-09-20 03:45:00,49.4,46.6,30.07,WNW,297,5.0,6.0,90,0.00,,,0.00,Wunderground v.1.15,2013-09-20 08:45:00,
2013-09-20 03:50:00,49.3,46.5,30.07,WNW,298,5.0,6.0,90,0.00,,,0.00,Wunderground v.1.15,2013-09-20 08:50:00,
2013-09-20 03:55:00,49.2,46.4,30.07,WNW,290,6.0,6.0,90,0.00,,,0.00,Wunderground v.1.15,2013-09-20 08:55:00,
2013-09-20 04:00:00,49.1,46.3,30.07,WNW,301,5.0,6.0,90,0.00,,,0.00,Wunderground v.1.15,2013-09-20 09:00:00,
2013-09-20 04:10:00,49.1,46.3,30.07,WNW,294,5.0,5.0,90,0.00,,,0.00,Wunderground v.1.15,2013-09-20 09:10:00,
2013-09-20 04:15:00,49.1,46.3,30.07,WNW,297,5.0,5.0,90,0.00,,,0.00,Wunderground v.1.15,2013-09-20 09:15:00,
2013-09-20 04:20:00,49.0,46.2,30.07,WNW,293,6.0,6.0,90,0.00,,,0.00,Wunderground v.1.15,2013-09-20 09:20:00,
2013-09-20 04:29:00,49.0,46.2,30.07,WNW,300,6.0,6.0,90,0.00,,,0.00,Wunderground v.1.15,2013-09-20 09:29:00,
2013-09-20 04:35:00,48.9,46.1,30.08,WNW,294,6.0,6.0,90,0.00,,,0.00,Wunderground v.1.15,2013-09-20 09:35:00,
2013-09-20 04:40:00,48.7,45.9,30.08,WNW,296,5.0,5.0,90,0.00,,,0.00,Wunderground v.1.15,2013-09-20 09:40:00,
2013-09-20 04:45:00,48.6,45.8,30.08,NW,305,5.0,6.0,90,0.00,,,0.00,Wunderground v.1.15,2013-09-20 09:45:00,
2013-09-20 04:55:00,48.5,45.4,30.07,WNW,301,6.0,6.0,89,0.00,,,0.00,Wunderground v.1.15,2013-09-20 09:55:00,
2013-09-20 05:00:00,48.4,45.3,30.08,NW,304,6.0,6.0,89,0.00,,,0.00,Wunderground v.1.15,2013-09-20 10:00:00,
2013-09-20 05:05:00,48.5,45.1,30.08,NW,316,6.0,7.0,88,0.00,,,0.00,Wunderground v.1.15,2013-09-20 10:05:00,
2013-09-20 05:10:00,48.7,45.3,30.08,WNW,298,7.0,7.0,88,0.00,,,0.00,Wunderground v.1.15,2013-09-20 10:10:00,
2013-09-20 05:15:00,48.6,44.9,30.08,WNW,300,6.0,7.0,87,0.00,,,0.00,Wunderground v.1.15,2013-09-20 10:15:00,
2013-09-20 05:25:00,48.2,44.8,30.08,WNW,294,5.0,8.0,88,0.00,,,0.00,Wunderground v.1.15,2013-09-20 10:25:00,
2013-09-20 05:30:00,48.1,44.7,30.08,WNW,302,5.0,6.0,88,0.00,,,0.00,Wunderground v.1.15,2013-09-20 10:30:00,
2013-09-20 05:35:00,48.1,44.7,30.08,NW,305,6.0,6.0,88,0.00,,,0.00,Wunderground v.1.15,2013-09-20 10:35:00,
2013-09-20 05:40:00,47.9,44.5,30.09,NW,306,5.0,5.0,88,0.00,,,0.00,Wunderground v.1.15,2013-09-20 10:40:00,
2013-09-20 05:50:00,47.7,44.3,30.09,WNW,290,5.0,5.0,88,0.00,,,0.00,Wunderground v.1.15,2013-09-20 10:50:00,
2013-09-20 05:55:00,47.6,44.2,30.09,WNW,294,4.0,6.0,88,0.00,,,0.00,Wunderground v.1.15,2013-09-20 10:55:00,
2013-09-20 06:00:00,47.6,44.2,30.10,NW,323,5.0,7.0,88,0.00,,,0.00,Wunderground v.1.15,2013-09-20 11:00:00,
2013-09-20 06:10:00,47.8,44.1,30.10,NW,309,6.0,9.0,87,0.00,,,0.00,Wunderground v.1.15,2013-09-20 11:10:00,
2013-09-20 06:15:00,47.8,44.1,30.10,WNW,296,7.0,9.0,87,0.00,,,0.00,Wunderground v.1.15,2013-09-20 11:15:00,
2013-09-20 06:20:00,47.9,43.9,30.10,WNW,292,7.0,8.0,86,0.00,,,0.00,Wunderground v.1.15,2013-09-20 11:20:00,
2013-09-20 06:25:00,47.9,43.9,30.10,WNW,299,7.0,8.0,86,0.00,,,0.00,Wunderground v.1.15,2013-09-20 11:25:00,
2013-09-20 06:35:00,47.8,43.8,30.10,NW,304,6.0,7.0,86,0.00,,,0.00,Wunderground v.1.15,2013-09-20 11:35:00,
2013-09-20 06:40:00,47.7,43.7,30.11,WNW,300,6.0,9.0,86,0.00,,,0.00,Wunderground v.1.15,2013-09-20 11:40:00,
2013-09-20 06:45:00,47.7,43.7,30.11,WNW,296,6.0,9.0,86,0.00,,,0.00,Wunderground v.1.15,2013-09-20 11:45:00,
2013-09-20 06:50:00,47.6,43.6,30.11,WNW,296,6.0,6.0,86,0.00,,,0.00,Wunderground v.1.15,2013-09-20 11:50:00,
2013-09-20 07:00:00,47.5,43.5,30.11,NW,320,6.0,7.0,86,0.00,,,0.00,Wunderground v.1.15,2013-09-20 12:00:00,
2013-09-20 07:05:00,47.4,43.4,30.11,NW,309,6.0,7.0,86,0.00,,,0.00,Wunderground v.1.15,2013-09-20 12:05:00,
2013-09-20 07:10:00,47.5,43.5,30.12,NW,306,6.0,6.0,86,0.00,,,0.00,Wunderground v.1.15,2013-09-20 12:10:00,
2013-09-20 07:15:00,47.5,43.5,30.12,NW,311,5.0,6.0,86,0.00,,,0.00,Wunderground v.1.15,2013-09-20 12:15:00,
2013-09-20 07:25:00,47.2,43.5,30.13,WNW,294,4.0,4.0,87,0.00,,,0.00,Wunderground v.1.15,2013-09-20 12:25:00,
2013-09-20 07:30:00,47.0,43.3,30.13,WNW,292,5.0,5.0,87,0.00,,,0.00,Wunderground v.1.15,2013-09-20 12:30:00,
2013-09-20 07:35:00,46.9,43.2,30.13,WNW,298,4.0,5.0,87,0.00,,,0.00,Wunderground v.1.15,2013-09-20 12:35:00,
2013-09-20 07:40:00,46.8,43.4,30.13,WNW,291,4.0,6.0,88,0.00,,,0.00,Wunderground v.1.15,2013-09-20 12:40:00,
2013-09-20 07:50:00,46.9,43.5,30.13,WNW,294,5.0,6.0,88,0.00,,,0.00,Wunderground v.1.15,2013-09-20 12:50:00,
2013-09-20 07:55:00,47.0,43.6,30.13,WNW,296,5.0,6.0,88,0.00,,,0.00,Wunderground v.1.15,2013-09-20 12:55:00,
2013-09-20 08:00:00,47.4,44.0,30.13,WNW,296,5.0,6.0,88,0.00,,,0.00,Wunderground v.1.15,2013-09-20 13:00:00,
2013-09-20 08:05:00,47.9,44.2,30.13,NW,312,5.0,7.0,87,0.00,,,0.00,Wunderground v.1.15,2013-09-20 13:05:00,
2013-09-20 08:15:00,48.9,44.6,30.13,WNW,292,6.0,8.0,85,0.00,,,0.00,Wunderground v.1.15,2013-09-20 13:15:00,
2013-09-20 08:20:00,49.6,45.0,30.13,NW,308,7.0,9.0,84,0.00,,,0.00,Wunderground v.1.15,2013-09-20 13:20:00,
2013-09-20 08:25:00,50.3,45.0,30.13,NW,305,8.0,9.0,82,0.00,,,0.00,Wunderground v.1.15,2013-09-20 13:25:00,
2013-09-20 08:35:00,51.4,45.1,30.13,NW,317,9.0,10.0,79,0.00,,,0.00,Wunderground v.1.15,2013-09-20 13:35:00,
2013-09-20 08:40:00,51.7,45.1,30.13,WNW,298,10.0,10.0,78,0.00,,,0.00,Wunderground v.1.15,2013-09-20 13:40:00,
2013-09-20 08:45:00,52.0,45.0,30.13,WNW,303,11.0,14.0,77,0.00,,,0.00,Wunderground v.1.15,2013-09-20 13:45:00,
2013-09-20 08:50:00,52.3,45.3,30.14,NW,320,11.0,11.0,77,0.00,,,0.00,Wunderground v.1.15,2013-09-20 13:50:00,
2013-09-20 09:00:00,52.9,45.5,30.14,NW,306,10.0,10.0,76,0.00,,,0.00,Wunderground v.1.15,2013-09-20 14:00:00,
2013-09-20 09:05:00,53.3,45.6,30.14,NW,324,10.0,10.0,75,0.00,,,0.00,Wunderground v.1.15,2013-09-20 14:05:00,
2013-09-20 09:10:00,53.5,45.8,30.14,NW,323,9.0,15.0,75,0.00,,,0.00,Wunderground v.1.15,2013-09-20 14:10:00,
2013-09-20 09:15:00,53.9,45.8,30.14,NW,324,9.0,15.0,74,0.00,,,0.00,Wunderground v.1.15,2013-09-20 14:15:00,
2013-09-20 09:20:00,54.2,46.1,30.14,North,355,10.0,10.0,74,0.00,,,0.00,Wunderground v.1.15,2013-09-20 14:20:00,
2013-09-20 09:30:00,55.0,45.8,30.14,NW,311,10.0,13.0,71,0.00,,,0.00,Wunderground v.1.15,2013-09-20 14:30:00,
2013-09-20 09:35:00,55.1,45.9,30.15,North,360,10.0,13.0,71,0.00,,,0.00,Wunderground v.1.15,2013-09-20 14:35:00,
2013-09-20 09:40:00,55.3,46.1,30.15,NW,322,10.0,10.0,71,0.00,,,0.00,Wunderground v.1.15,2013-09-20 14:40:00,
2013-09-20 09:50:00,56.2,45.8,30.15,NW,306,8.0,10.0,68,0.00,,,0.00,Wunderground v.1.15,2013-09-20 14:50:00,
2013-09-20 09:55:00,56.2,45.4,30.15,NW,312,11.0,12.0,67,0.00,,,0.00,Wunderground v.1.15,2013-09-20 14:55:00,
2013-09-20 10:00:00,56.5,45.3,30.15,North,355,13.0,13.0,66,0.00,,,0.00,Wunderground v.1.15,2013-09-20 15:00:00,
2013-09-20 10:05:00,56.9,45.7,30.15,NW,312,11.0,14.0,66,0.00,,,0.00,Wunderground v.1.15,2013-09-20 15:05:00,
2013-09-20 10:15:00,57.2,45.1,30.15,NW,317,13.0,13.0,64,0.00,,,0.00,Wunderground v.1.15,2013-09-20 15:15:00,
2013-09-20 10:20:00,57.8,46.5,30.15,NW,305,11.0,13.0,66,0.00,,,0.00,Wunderground v.1.15,2013-09-20 15:20:00,
2013-09-20 10:25:00,58.2,45.2,30.15,NW,319,11.0,13.0,62,0.00,,,0.00,Wunderground v.1.15,2013-09-20 15:25:00,
2013-09-20 10:30:00,58.5,45.5,30.15,NNW,327,12.0,18.0,62,0.00,,,0.00,Wunderground v.1.15,2013-09-20 15:30:00,
2013-09-20 10:40:00,59.1,44.3,30.15,NNW,339,11.0,11.0,58,0.00,,,0.00,Wunderground v.1.15,2013-09-20 15:40:00,
2013-09-20 10:45:00,59.2,44.4,30.15,NW,317,11.0,11.0,58,0.00,,,0.00,Wunderground v.1.15,2013-09-20 15:45:00,
2013-09-20 10:50:00,59.6,44.8,30.15,NNW,348,11.0,11.0,58,0.00,,,0.00,Wunderground v.1.15,2013-09-20 15:50:00,
2013-09-20 10:55:00,59.8,45.4,30.15,NE,40,10.0,11.0,59,0.00,,,0.00,Wunderground v.1.15,2013-09-20 15:55:00,
2013-09-20 11:05:00,60.2,44.4,30.15,NW,308,11.0,15.0,56,0.00,,,0.00,Wunderground v.1.15,2013-09-20 16:05:00,
2013-09-20 11:10:00,60.1,44.8,30.15,NW,324,12.0,14.0,57,0.00,,,0.00,Wunderground v.1.15,2013-09-20 16:10:00,
2013-09-20 11:20:00,60.8,45.5,30.15,NW,315,10.0,15.0,57,0.00,,,0.00,Wunderground v.1.15,2013-09-20 16:20:00,
2013-09-20 11:25:00,60.9,45.1,30.15,NW,314,10.0,15.0,56,0.00,,,0.00,Wunderground v.1.15,2013-09-20 16:25:00,
2013-09-20 11:30:00,61.4,46.0,30.15,NNW,327,9.0,9.0,57,0.00,,,0.00,Wunderground v.1.15,2013-09-20 16:30:00,
2013-09-20 11:35:00,61.7,45.4,30.15,NNW,336,8.0,12.0,55,0.00,,,0.00,Wunderground v.1.15,2013-09-20 16:35:00,
2013-09-20 11:45:00,61.9,45.1,30.14,NNW,340,9.0,11.0,54,0.00,,,0.00,Wunderground v.1.15,2013-09-20 16:45:00,
2013-09-20 11:50:00,62.3,45.4,30.14,NW,319,9.0,9.0,54,0.00,,,0.00,Wunderground v.1.15,2013-09-20 16:50:00,
2013-09-20 11:55:00,62.6,46.2,30.14,WNW,301,8.0,9.0,55,0.00,,,0.00,Wunderground v.1.15,2013-09-20 16:55:00,
2013-09-20 12:00:00,63.4,45.5,30.14,WNW,296,7.0,8.0,52,0.00,,,0.00,Wunderground v.1.15,2013-09-20 17:00:00,
2013-09-20 12:10:00,63.7,45.7,30.13,North,355,8.0,8.0,52,0.00,,,0.00,Wunderground v.1.15,2013-09-20 17:10:00,
2013-09-20 12:15:00,63.5,45.6,30.13,North,355,6.0,8.0,52,0.00,,,0.00,Wunderground v.1.15,2013-09-20 17:15:00,
2013-09-20 12:20:00,64.0,46.0,30.13,NW,313,8.0,11.0,52,0.00,,,0.00,Wunderground v.1.15,2013-09-20 17:20:00,
2013-09-20 12:25:00,64.2,46.2,30.13,North,355,7.0,11.0,52,0.00,,,0.00,Wunderground v.1.15,2013-09-20 17:25:00,
2013-09-20 12:35:00,64.4,45.3,30.13,NW,321,8.0,14.0,50,0.00,,,0.00,Wunderground v.1.15,2013-09-20 17:35:00,
2013-09-20 12:40:00,64.2,45.7,30.12,WNW,298,10.0,10.0,51,0.00,,,0.00,Wunderground v.1.15,2013-09-20 17:40:00,
2013-09-20 12:45:00,64.7,45.1,30.12,NW,306,10.0,10.0,49,0.00,,,0.00,Wunderground v.1.15,2013-09-20 17:45:00,
2013-09-20 12:55:00,65.0,45.4,30.12,NNW,331,10.0,10.0,49,0.00,,,0.00,Wunderground v.1.15,2013-09-20 17:55:00,
2013-09-20 13:00:00,65.2,46.1,30.12,NNE,21,9.0,9.0,50,0.00,,,0.00,Wunderground v.1.15,2013-09-20 18:00:00,
2013-09-20 13:05:00,65.6,47.5,30.11,NW,311,8.0,11.0,52,0.00,,,0.00,Wunderground v.1.15,2013-09-20 18:05:00,
2013-09-20 13:10:00,65.7,46.0,30.11,NNW,328,9.0,9.0,49,0.00,,,0.00,Wunderground v.1.15,2013-09-20 18:10:00,
2013-09-20 13:20:00,66.5,46.7,30.11,NW,318,8.0,8.0,49,0.00,,,0.00,Wunderground v.1.15,2013-09-20 18:20:00,
2013-09-20 13:25:00,66.1,46.4,30.11,NW,321,10.0,10.0,49,0.00,,,0.00,Wunderground v.1.15,2013-09-20 18:25:00,
2013-09-20 13:30:00,66.3,47.1,30.11,WNW,303,9.0,9.0,50,0.00,,,0.00,Wunderground v.1.15,2013-09-20 18:30:00,
2013-09-20 13:35:00,66.8,47.0,30.10,NW,306,7.0,10.0,49,0.00,,,0.00,Wunderground v.1.15,2013-09-20 18:35:00,
2013-09-20 13:45:00,67.1,47.3,30.10,NNW,334,9.0,13.0,49,0.00,,,0.00,Wunderground v.1.15,2013-09-20 18:45:00,
2013-09-20 13:50:00,66.8,47.0,30.10,NW,309,10.0,11.0,49,0.00,,,0.00,Wunderground v.1.15,2013-09-20 18:50:00,
2013-09-20 13:55:00,67.4,47.6,30.09,NW,316,9.0,11.0,49,0.00,,,0.00,Wunderground v.1.15,2013-09-20 18:55:00,
2013-09-20 14:05:00,68.0,47.6,30.09,WNW,291,11.0,16.0,48,0.00,,,0.00,Wunderground v.1.15,2013-09-20 19:05:00,
2013-09-20 14:10:00,67.9,46.9,30.09,NW,305,12.0,12.0,47,0.00,,,0.00,Wunderground v.1.15,2013-09-20 19:10:00,
2013-09-20 14:15:00,67.8,48.5,30.08,NW,306,10.0,12.0,50,0.00,,,0.00,Wunderground v.1.15,2013-09-20 19:15:00,
2013-09-20 14:20:00,68.2,48.3,30.08,NW,311,7.0,7.0,49,0.00,,,0.00,Wunderground v.1.15,2013-09-20 19:20:00,
2013-09-20 14:25:00,68.5,46.3,30.08,NNW,330,8.0,8.0,45,0.00,,,0.00,Wunderground v.1.15,2013-09-20 19:25:00,
2013-09-20 14:35:00,68.3,48.9,30.08,WNW,290,8.0,9.0,50,0.00,,,0.00,Wunderground v.1.15,2013-09-20 19:35:00,
2013-09-20 14:40:00,68.3,46.7,30.07,WNW,286,7.0,12.0,46,0.00,,,0.00,Wunderground v.1.15,2013-09-20 19:40:00,
2013-09-20 14:45:00,68.7,47.6,30.07,WNW,288,8.0,16.0,47,0.00,,,0.00,Wunderground v.1.15,2013-09-20 19:45:00,
2013-09-20 14:50:00,69.2,46.9,30.07,WNW,288,9.0,9.0,45,0.00,,,0.00,Wunderground v.1.15,2013-09-20 19:50:00,
2013-09-20 15:00:00,68.9,47.8,30.06,WNW,296,6.0,8.0,47,0.00,,,0.00,Wunderground v.1.15,2013-09-20 20:00:00,
2013-09-20 15:05:00,69.4,48.3,30.06,West,275,8.0,8.0,47,0.00,,,0.00,Wunderground v.1.15,2013-09-20 20:05:00,
2013-09-20 15:10:00,69.7,48.0,30.06,WNW,293,10.0,10.0,46,0.00,,,0.00,Wunderground v.1.15,2013-09-20 20:10:00,
2013-09-20 15:15:00,69.4,48.3,30.06,NW,315,9.0,10.0,47,0.00,,,0.00,Wunderground v.1.15,2013-09-20 20:15:00,
2013-09-20 15:25:00,69.9,47.6,30.05,WNW,297,7.0,17.0,45,0.00,,,0.00,Wunderground v.1.15,2013-09-20 20:25:00,
2013-09-20 15:30:00,69.9,46.4,30.05,NW,308,9.0,12.0,43,0.00,,,0.00,Wunderground v.1.15,2013-09-20 20:30:00,
2013-09-20 15:35:00,69.8,46.9,30.05,WNW,300,9.0,12.0,44,0.00,,,0.00,Wunderground v.1.15,2013-09-20 20:35:00,
2013-09-20 15:40:00,69.7,46.2,30.05,WNW,288,10.0,10.0,43,0.00,,,0.00,Wunderground v.1.15,2013-09-20 20:40:00,
2013-09-20 15:50:00,69.8,46.3,30.05,NW,305,10.0,10.0,43,0.00,,,0.00,Wunderground v.1.15,2013-09-20 20:50:00,
2013-09-20 15:55:00,70.2,46.6,30.04,West,273,8.0,11.0,43,0.00,,,0.00,Wunderground v.1.15,2013-09-20 20:55:00,
2013-09-20 16:00:00,70.8,45.9,30.04,NW,308,9.0,9.0,41,0.00,,,0.00,Wunderground v.1.15,2013-09-20 21:00:00,
2013-09-20 16:05:00,70.4,46.2,30.04,NW,321,10.0,10.0,42,0.00,,,0.00,Wunderground v.1.15,2013-09-20 21:05:00,
2013-09-20 16:15:00,70.4,46.2,30.04,NW,306,11.0,11.0,42,0.00,,,0.00,Wunderground v.1.15,2013-09-20 21:15:00,
2013-09-20 16:20:00,70.6,47.0,30.04,NW,323,11.0,11.0,43,0.00,,,0.00,Wunderground v.1.15,2013-09-20 21:20:00,
2013-09-20 16:25:00,70.5,46.3,30.04,NNW,333,9.0,11.0,42,0.00,,,0.00,Wunderground v.1.15,2013-09-20 21:25:00,
2013-09-20 16:34:00,70.8,46.6,30.04,NW,319,9.0,16.0,42,0.00,,,0.00,Wunderground v.1.15,2013-09-20 21:34:00,
2013-09-20 16:40:00,70.6,45.7,30.04,NW,311,10.0,10.0,41,0.00,,,0.00,Wunderground v.1.15,2013-09-20 21:40:00,
2013-09-20 16:45:00,71.0,46.7,30.03,WNW,297,9.0,13.0,42,0.00,,,0.00,Wunderground v.1.15,2013-09-20 21:45:00,
2013-09-20 16:50:00,71.0,46.7,30.03,WNW,297,10.0,11.0,42,0.00,,,0.00,Wunderground v.1.15,2013-09-20 21:50:00,
2013-09-20 17:00:00,70.8,46.6,30.03,WNW,302,10.0,12.0,42,0.00,,,0.00,Wunderground v.1.15,2013-09-20 22:00:00,
2013-09-20 17:05:00,71.2,48.2,30.04,NW,319,8.0,12.0,44,0.00,,,0.00,Wunderground v.1.15,2013-09-20 22:05:00,
2013-09-20 17:10:00,71.1,48.1,30.03,NNW,327,8.0,8.0,44,0.00,,,0.00,Wunderground v.1.15,2013-09-20 22:10:00,
2013-09-20 17:15:00,70.9,47.3,30.03,NW,314,9.0,12.0,43,0.00,,,0.00,Wunderground v.1.15,2013-09-20 22:15:00,
2013-09-20 17:25:00,70.9,47.3,30.03,NNW,327,9.0,12.0,43,0.00,,,0.00,Wunderground v.1.15,2013-09-20 22:25:00,
2013-09-20 17:30:00,71.0,47.4,30.03,NNW,348,9.0,9.0,43,0.00,,,0.00,Wunderground v.1.15,2013-09-20 22:30:00,
2013-09-20 17:35:00,70.9,47.3,30.03,WNW,301,8.0,10.0,43,0.00,,,0.00,Wunderground v.1.15,2013-09-20 22:35:00,
2013-09-20 17:44:00,70.9,47.3,30.03,NW,315,8.0,8.0,43,0.00,,,0.00,Wunderground v.1.15,2013-09-20 22:44:00,
2013-09-20 17:50:00,70.8,47.2,30.03,NW,319,7.0,8.0,43,0.00,,,0.00,Wunderground v.1.15,2013-09-20 22:50:00,
2013-09-20 17:55:00,70.9,47.9,30.03,WNW,298,6.0,8.0,44,0.00,,,0.00,Wunderground v.1.15,2013-09-20 22:55:00,
2013-09-20 18:00:00,71.0,47.4,30.03,NW,323,6.0,6.0,43,0.00,,,0.00,Wunderground v.1.15,2013-09-20 23:00:00,
2013-09-20 18:05:00,71.0,48.0,30.03,WNW,299,6.0,6.0,44,0.00,,,0.00,Wunderground v.1.15,2013-09-20 23:05:00,
2013-09-20 18:15:00,70.7,47.7,30.03,WNW,303,6.0,7.0,44,0.00,,,0.00,Wunderground v.1.15,2013-09-20 23:15:00,
2013-09-20 18:20:00,70.5,47.5,30.03,NW,311,6.0,7.0,44,0.00,,,0.00,Wunderground v.1.15,2013-09-20 23:20:00,
2013-09-20 18:25:00,70.6,48.8,30.03,NW,307,4.0,7.0,46,0.00,,,0.00,Wunderground v.1.15,2013-09-20 23:25:00,
2013-09-20 18:30:00,70.5,48.1,30.03,NW,306,3.0,3.0,45,0.00,,,0.00,Wunderground v.1.15,2013-09-20 23:30:00,
2013-09-20 18:40:00,70.1,48.4,30.02,NW,315,4.0,4.0,46,0.00,,,0.00,Wunderground v.1.15,2013-09-20 23:40:00,
2013-09-20 18:45:00,69.9,48.2,30.02,NW,309,4.0,4.0,46,0.00,,,0.00,Wunderground v.1.15,2013-09-20 23:45:00,
2013-09-20 18:50:00,69.5,48.4,30.02,NW,314,4.0,5.0,47,0.00,,,0.00,Wunderground v.1.15,2013-09-20 23:50:00,
2013-09-20 18:59:00,69.0,48.5,30.02,NW,310,2.0,2.0,48,0.00,,,0.00,Wunderground v.1.15,2013-09-20 23:59:00,
2013-09-20 19:05:00,69.2,48.7,30.02,NW,310,0.0,2.0,48,0.00,,,0.00,Wunderground v.1.15,2013-09-21 00:05:00,
2013-09-20 19:10:00,69.4,48.9,30.02,NW,310,0.0,1.0,48,0.00,,,0.00,Wunderground v.1.15,2013-09-21 00:10:00,
2013-09-20 19:15:00,69.4,48.9,30.02,NW,310,0.0,1.0,48,0.00,,,0.00,Wunderground v.1.15,2013-09-21 00:15:00,
2013-09-20 19:25:00,68.4,49.0,30.02,NW,310,0.0,1.0,50,0.00,,,0.00,Wunderground v.1.15,2013-09-21 00:25:00,
2013-09-20 19:30:00,67.7,48.9,30.02,NW,310,0.0,1.0,51,0.00,,,0.00,Wunderground v.1.15,2013-09-21 00:30:00,
2013-09-20 19:35:00,67.2,49.0,30.02,NW,310,0.0,1.0,52,0.00,,,0.00,Wunderground v.1.15,2013-09-21 00:35:00,
2013-09-20 19:40:00,66.8,48.6,30.02,NW,310,0.0,1.0,52,0.00,,,0.00,Wunderground v.1.15,2013-09-21 00:40:00,
2013-09-20 19:45:00,66.5,48.3,30.02,NW,310,0.0,1.0,52,0.00,,,0.00,Wunderground v.1.15,2013-09-21 00:45:00,
2013-09-20 19:55:00,66.4,48.2,30.02,NW,310,0.0,1.0,52,0.00,,,0.00,Wunderground v.1.15,2013-09-21 00:55:00,
2013-09-20 20:00:00,66.1,48.0,30.02,NW,310,0.0,1.0,52,0.00,,,0.00,Wunderground v.1.15,2013-09-21 01:00:00,
2013-09-20 20:05:00,65.8,48.2,30.02,NW,310,0.0,1.0,53,0.00,,,0.00,Wunderground v.1.15,2013-09-21 01:05:00,
2013-09-20 20:10:00,65.5,48.4,30.02,NW,310,0.0,1.0,54,0.00,,,0.00,Wunderground v.1.15,2013-09-21 01:10:00,
2013-09-20 20:20:00,63.9,49.3,30.02,NNE,19,1.0,1.0,59,0.00,,,0.00,Wunderground v.1.15,2013-09-21 01:20:00,
2013-09-20 20:25:00,63.3,49.2,30.02,NNE,19,0.0,1.0,60,0.00,,,0.00,Wunderground v.1.15,2013-09-21 01:25:00,
2013-09-20 20:30:00,62.9,48.8,30.02,NNE,19,0.0,1.0,60,0.00,,,0.00,Wunderground v.1.15,2013-09-21 01:30:00,
2013-09-20 20:35:00,62.6,49.4,30.03,NNE,19,0.0,1.0,62,0.00,,,0.00,Wunderground v.1.15,2013-09-21 01:35:00,
2013-09-20 20:45:00,62.2,48.1,30.03,NNE,19,0.0,1.0,60,0.00,,,0.00,Wunderground v.1.15,2013-09-21 01:45:00,
2013-09-20 20:50:00,62.6,48.1,30.03,NNE,19,0.0,1.0,59,0.00,,,0.00,Wunderground v.1.15,2013-09-21 01:50:00,
2013-09-20 20:55:00,62.5,48.4,30.03,NNE,19,0.0,1.0,60,0.00,,,0.00,Wunderground v.1.15,2013-09-21 01:55:00,
2013-09-20 21:00:00,62.2,48.6,30.03,NNE,19,0.0,1.0,61,0.00,,,0.00,Wunderground v.1.15,2013-09-21 02:00:00,
2013-09-20 21:10:00,60.9,48.2,30.03,NNE,19,0.0,1.0,63,0.00,,,0.00,Wunderground v.1.15,2013-09-21 02:10:00,
2013-09-20 21:15:00,60.8,48.1,30.03,NNE,19,0.0,1.0,63,0.00,,,0.00,Wunderground v.1.15,2013-09-21 02:15:00,
2013-09-20 21:20:00,60.8,47.7,30.03,NNE,19,0.0,1.0,62,0.00,,,0.00,Wunderground v.1.15,2013-09-21 02:20:00,
2013-09-20 21:25:00,61.0,47.9,30.03,NNE,19,0.0,1.0,62,0.00,,,0.00,Wunderground v.1.15,2013-09-21 02:25:00,
2013-09-20 21:35:00,61.3,47.7,30.04,NNE,19,0.0,1.0,61,0.00,,,0.00,Wunderground v.1.15,2013-09-21 02:35:00,
2013-09-20 21:40:00,60.7,48.0,30.04,NNE,19,0.0,1.0,63,0.00,,,0.00,Wunderground v.1.15,2013-09-21 02:40:00,
2013-09-20 21:45:00,60.2,48.0,30.04,NNE,19,1.0,3.0,64,0.00,,,0.00,Wunderground v.1.15,2013-09-21 02:45:00,
2013-09-20 21:55:00,59.4,48.0,30.04,NNE,19,1.0,1.0,66,0.00,,,0.00,Wunderground v.1.15,2013-09-21 02:55:00,
2013-09-20 22:00:00,59.1,47.7,30.04,NNE,19,0.0,1.0,66,0.00,,,0.00,Wunderground v.1.15,2013-09-21 03:00:00,
2013-09-20 22:05:00,58.7,48.2,30.04,NNE,19,0.0,1.0,68,0.00,,,0.00,Wunderground v.1.15,2013-09-21 03:05:00,
2013-09-20 22:10:00,58.3,48.2,30.04,NNE,19,0.0,1.0,69,0.00,,,0.00,Wunderground v.1.15,2013-09-21 03:10:00,
2013-09-20 22:20:00,58.1,48.0,30.04,NNE,19,0.0,1.0,69,0.00,,,0.00,Wunderground v.1.15,2013-09-21 03:20:00,
2013-09-20 22:25:00,57.7,48.4,30.04,NNE,19,0.0,1.0,71,0.00,,,0.00,Wunderground v.1.15,2013-09-21 03:25:00,
2013-09-20 22:30:00,57.4,48.1,30.05,NNE,19,0.0,1.0,71,0.00,,,0.00,Wunderground v.1.15,2013-09-21 03:30:00,
2013-09-20 22:35:00,57.2,48.3,30.05,NNE,19,0.0,1.0,72,0.00,,,0.00,Wunderground v.1.15,2013-09-21 03:35:00,
2013-09-20 22:45:00,57.1,47.8,30.05,NNE,19,0.0,1.0,71,0.00,,,0.00,Wunderground v.1.15,2013-09-21 03:45:00,
2013-09-20 22:50:00,56.8,48.2,30.05,NNE,19,0.0,1.0,73,0.00,,,0.00,Wunderground v.1.15,2013-09-21 03:50:00,
2013-09-20 22:55:00,56.1,48.3,30.05,NNE,19,0.0,1.0,75,0.00,,,0.00,Wunderground v.1.15,2013-09-21 03:55:00,
2013-09-20 23:00:00,55.7,48.6,30.05,NNE,19,0.0,1.0,77,0.00,,,0.00,Wunderground v.1.15,2013-09-21 04:00:00,
2013-09-20 23:04:00,55.5,48.4,30.05,NNE,19,0.0,1.0,77,0.00,,,0.00,Wunderground v.1.15,2013-09-21 04:04:00,
2013-09-20 23:10:00,55.4,48.3,30.05,NNE,19,0.0,1.0,77,0.00,,,0.00,Wunderground v.1.15,2013-09-21 04:10:00,
2013-09-20 23:15:00,55.8,48.0,30.05,NNE,19,1.0,3.0,75,0.00,,,0.00,Wunderground v.1.15,2013-09-21 04:15:00,
2013-09-20 23:20:00,56.6,48.4,30.05,NNE,19,2.0,2.0,74,0.00,,,0.00,Wunderground v.1.15,2013-09-21 04:20:00,
2013-09-20 23:25:00,56.6,48.0,30.05,NNE,19,2.0,2.0,73,0.00,,,0.00,Wunderground v.1.15,2013-09-21 04:25:00,
2013-09-20 23:35:00,55.5,48.4,30.05,NNE,19,0.0,2.0,77,0.00,,,0.00,Wunderground v.1.15,2013-09-21 04:35:00,
2013-09-20 23:40:00,55.1,48.4,30.05,NNE,19,1.0,1.0,78,0.00,,,0.00,Wunderground v.1.15,2013-09-21 04:40:00,
2013-09-20 23:45:00,54.6,48.2,30.05,NNE,19,2.0,3.0,79,0.00,,,0.00,Wunderground v.1.15,2013-09-21 04:45:00,
2013-09-20 23:50:00,54.6,47.9,30.05,NNE,19,2.0,3.0,78,0.00,,,0.00,Wunderground v.1.15,2013-09-21 04:50:00,